Location: Newark
(41.1192°N, 81.5292°W)
Time: 03:18:29
(UTC+00:00)

Starlink Launch 2 trailer - Visible Passes

Search period start: 14 December 2019 00:00
Search period end: 24 December 2019 00:00
Orbit: 279 x 281 km, 53.0° (Epoch: 13 November)

Date Brightness Start Highest point End Pass type
(mag) Time Alt. Az. Time Alt. Az. Time Alt. Az.
20 Dec 4.1 23:14:46 10° S 23:16:36 19° SE 23:16:36 19° SE visible
21 Dec 2.8 23:16:07 10° SSW 23:18:28 41° SE 23:18:50 37° ESE visible
22 Dec 2.2 23:17:54 10° SW 23:20:21 81° NW 23:20:58 45° NE visible
23 Dec 3.4 23:20:00 10° WSW 23:22:19 36° NNW 23:23:03 28° N visible
